Weather History for Opa Locka, FL

Change the Weather History Date:

Tuesday, October 9, 2012

  Actual Average Record
Temperature  
Mean Temperature 82 °F -  
Max Temperature 90 °F 87 °F 92 °F (1981)
Min Temperature 75 °F 72 °F 65 °F (1948)
Cooling Degree Days 16    
Growing Degree Days 32 (Base 50)    
Moisture  
Dew Point 75 °F    
Average Humidity 80    
Maximum Humidity 97    
Minimum Humidity 59    
Precipitation  
Precipitation 0.00 in - - ()
Sea Level Pressure  
Sea Level Pressure 30.00 in    
Wind  
Wind Speed 3 mph (NNE)    
Max Wind Speed 9 mph    
Max Gust Speed -    
Visibility 10 miles    
Events Rain    
Averages and records for this station are not official NWS values.
T = Trace of Precipitation, MM = Missing Value Source: NWS Daily Summary

Daily Weather History Graph

Daily Weather History Graph

Search for Another Location

Airport:

Trip Planner

Search our weather history database for the weather conditions in past years. The results will help you decide how hot, cold, wet, or windy it might be!

Date:

Astronomy

Oct. 09, 2012 Rise Set
Actual Time 7:17 AM EDT 6:58 PM EDT
Civil Twilight 6:54 AM EDT 7:21 PM EDT
Nautical Twilight 6:27 AM EDT 7:48 PM EDT
Astronomical Twilight 6:00 AM EDT 8:15 PM EDT
Moon 1:26 AM EDT (10/9) 2:54 PM EDT (10/9)
Length of Visible Light 12h 27m
Length of Day
11h 41m
Last Quarter, 37% of the Moon is Illuminated
Oct 9
Last Quarter
Oct 15
New
Oct 21
First Quarter
Oct 29
Full
Nov 6
Last Quarter

Hourly Weather History & Observations

Time (EDT) Temp. Heat Index Dew Point Humidity Pressure Visibility Wind Dir Wind Speed Gust Speed Precip Events Conditions
12:53 AM 77.0 °F - 75.2 °F 94% 29.99 in 10.0 mi Calm Calm - N/A   Clear
1:53 AM 78.1 °F - 75.0 °F 90% 29.98 in 10.0 mi NNW 4.6 mph - N/A   Clear
2:53 AM 77.0 °F - 75.0 °F 94% 29.97 in 10.0 mi Calm Calm - N/A   Clear
3:53 AM 77.0 °F - 75.2 °F 94% 29.96 in 10.0 mi Calm Calm - N/A   Clear
4:53 AM 75.9 °F - 75.0 °F 97% 29.97 in 10.0 mi Calm Calm - N/A   Clear
5:53 AM 77.0 °F - 75.9 °F 96% 29.97 in 10.0 mi North 3.5 mph - N/A   Clear
6:01 AM 77.0 °F - 75.2 °F 94% 29.97 in 10.0 mi North 8.1 mph - N/A   Scattered Clouds
6:53 AM 77.0 °F - 75.9 °F 96% 29.98 in 10.0 mi North 3.5 mph - N/A   Clear
7:53 AM 78.1 °F - 75.9 °F 93% 29.99 in 10.0 mi Calm Calm - N/A   Clear
8:53 AM 81.0 °F 87.9 °F 77.0 °F 88% 30.01 in 10.0 mi North 5.8 mph - N/A   Clear
9:53 AM 84.0 °F 92.6 °F 75.9 °F 76% 30.02 in 10.0 mi Calm Calm - N/A   Partly Cloudy
10:53 AM 86.0 °F 95.1 °F 75.0 °F 70% 30.03 in 10.0 mi North 5.8 mph - N/A   Mostly Cloudy
11:04 AM 86.0 °F 93.4 °F 73.4 °F 66% 30.03 in 10.0 mi North 6.9 mph - N/A   Scattered Clouds
11:53 AM 86.0 °F 93.0 °F 73.0 °F 65% 30.03 in 10.0 mi North 5.8 mph - N/A   Mostly Cloudy
12:53 PM 88.0 °F 94.7 °F 72.0 °F 59% 30.01 in 10.0 mi ENE 3.5 mph - N/A   Partly Cloudy
1:53 PM 88.0 °F 95.6 °F 73.0 °F 61% 29.99 in 10.0 mi NE 6.9 mph - N/A   Mostly Cloudy
2:53 PM 84.9 °F 91.4 °F 73.0 °F 67% 29.97 in 10.0 mi ESE 9.2 mph - 0.00 in Rain Light Rain
3:53 PM 86.0 °F 92.2 °F 72.0 °F 63% 29.96 in 10.0 mi ENE 5.8 mph - 0.00 in   Mostly Cloudy
4:53 PM 87.1 °F 95.4 °F 73.9 °F 65% 29.97 in 10.0 mi East 9.2 mph - N/A   Partly Cloudy
5:53 PM 84.9 °F 92.1 °F 73.9 °F 69% 29.97 in 10.0 mi ENE 9.2 mph - N/A   Clear
6:53 PM 82.9 °F 90.2 °F 75.0 °F 77% 29.98 in 10.0 mi ENE 8.1 mph - N/A   Clear
7:53 PM 82.0 °F 88.6 °F 75.0 °F 79% 29.99 in 10.0 mi ENE 9.2 mph - N/A   Partly Cloudy
8:53 PM 82.0 °F 89.4 °F 75.9 °F 82% 30.01 in 10.0 mi NE 5.8 mph - N/A   Mostly Cloudy
9:53 PM 82.0 °F 89.4 °F 75.9 °F 82% 30.03 in 10.0 mi North 4.6 mph - N/A   Mostly Cloudy
10:05 PM 82.4 °F 89.5 °F 75.2 °F 79% 30.03 in 10.0 mi NNE 4.6 mph - N/A   Partly Cloudy
10:53 PM 81.0 °F 86.7 °F 75.0 °F 82% 30.04 in 10.0 mi North 3.5 mph - N/A   Mostly Cloudy
11:53 PM 81.0 °F 86.7 °F 75.0 °F 82% 30.03 in 10.0 mi Calm Calm - N/A   Clear